Wind_Speed
51 50 48 47 45 44 43 41 40 38 37 35 34 32 30 28 27 25 24 24 24 23 23 24 24 24 24 24 24 23 23 22 22 22 22 22 23 23 23 23 23 23 23 22 21 21 20 18 18 17 16 15 14 14 13 12 12 10 10 9 8 8 7 8 9 10 10 10 10 10 9 9 10 10 10 9 9 8 8 9 10 10 10 10 10 10 11 11
51 50 48 47 45 44 43 41 40 39 37 36 34 33 31 29 27 26 25 24 24 23 24 24 24 24 24 24 24 24 23 23 23 22 22 23 23 23 23 23 22 22 21 21 20 19 19 17 17 16 15 15 14 14 13 12 11 10 10 9 9 9 8 8 9 9 9 9 10 9 8 8 8 9 9 9 9 8 8 9 10 10 11 11 11 11 12 12
51 50 48 47 45 44 42 41 40 39 38 36 35 33 31 29 28 27 26 25 25 24 24 24 24 24 24 24 24 24 23 23 23 22 22 22 23 23 23 22 22 21 21 20 19 19 18 17 16 16 15 14 14 13 13 12 11 10 10 9 9 9 8 8 8 8 9 8 8 8 7 6 7 8 8 9 9 8 9 10 10 11 11 12 12 12 13 13
51 50 49 47 46 44 43 41 40 39 38 37 35 34 32 30 29 28 27 26 26 26 25 25 25 24 24 24 24 24 23 23 22 22 22 22 22 22 22 22 22 21 21 20 19 19 18 17 16 15 15 14 13 13 12 12 12 11 10 9 9 8 8 7 7 7 7 6 6 6 5 5 6 7 9 10 9 8 9 11 11 11 12 12 13 13 13 14
51 50 49 47 46 45 43 42 41 39 38 37 36 34 33 31 30 29 28 28 27 27 26 26 26 25 25 25 25 24 24 23 23 22 22 22 22 22 22 22 22 21 20 20 20 19 18 17 16 16 15 14 14 13 13 13 12 11 10 9 9 8 7 7 7 6 5 5 4 4 4 5 6 8 10 11 9 9 10 11 12 12 12 13 13 14 14 16
51 50 49 48 46 45 44 42 41 40 39 38 37 36 34 33 32 31 30 29 28 28 27 27 26 26 26 26 25 25 25 24 23 24 23 23 23 23 23 22 22 22 21 21 20 19 18 17 17 16 16 15 15 14 13 13 12 11 10 9 8 8 7 7 7 6 5 5 5 5 5 6 7 9 11 11 10 10 11 12 12 12 13 13 14 15 16 17
51 50 49 48 46 45 44 43 42 41 40 39 38 37 36 35 33 32 31 31 30 29 29 28 28 27 27 27 27 26 26 25 25 25 25 24 24 24 24 24 24 23 22 22 21 20 19 18 17 17 16 16 15 15 14 13 12 11 10 10 9 8 8 8 7 6 6 6 5 6 6 7 8 10 13 11 10 11 12 12 13 13 14 14 15 16 17 18
51 50 49 48 47 46 45 44 43 43 42 41 40 39 37 36 35 34 33 32 31 31 30 29 29 29 28 28 28 28 28 27 27 27 26 26 25 25 25 25 25 24 23 22 21 20 19 18 18 18 17 17 16 15 14 14 13 12 11 11 10 9 9 8 8 8 7 7 7 7 7 8 8 11 14 12 10 12 13 13 13 14 14 15 16 17 18 19
51 51 50 49 48 47 46 45 45 44 43 42 41 40 39 38 37 36 35 34 33 32 31 31 30 30 30 30 30 29 29 29 29 29 28 28 27 27 26 26 26 25 24 23 22 21 20 19 19 19 18 18 17 16 15 15 14 13 13 12 11 11 10 10 10 9 9 8 8 8 8 9 10 12 15 13 12 13 14 14 14 14 15 15 16 17 18 20
52 51 51 50 49 48 47 47 46 45 44 43 42 41 40 40 39 37 37 36 35 34 33 33 32 31 31 31 31 31 30 30 30 30 30 29 29 28 28 28 27 26 25 24 23 22 21 21 20 20 20 19 18 17 16 16 15 15 14 14 13 12 12 12 12 11 11 10 10 10 10 10 11 14 16 13 13 14 14 14 14 15 16 16 17 18 19 20
53 52 52 51 50 49 49 48 47 46 45 44 43 43 42 41 40 39 38 38 37 36 35 34 34 33 33 32 32 32 32 31 32 32 31 31 30 30 30 29 29 28 27 26 24 23 22 22 21 21 21 20 19 18 17 17 16 16 16 15 15 14 14 14 13 13 13 12 13 13 11 11 13 16 17 14 14 14 14 15 15 16 17 17 18 19 19 20
54 53 53 52 51 50 50 49 48 47 46 45 45 44 44 43 42 41 41 40 39 38 37 36 35 35 34 34 34 33 33 33 33 33 33 33 32 32 32 31 31 30 29 27 26 25 24 23 23 22 22 21 20 19 19 18 18 18 17 17 16 16 15 15 15 14 14 14 15 15 13 12 16 17 17 16 16 16 16 16 17 17 18 19 19 20 20 21
55 54 54 53 52 52 51 50 49 48 47 47 46 45 45 44 43 43 42 41 41 40 39 38 37 36 36 35 35 35 34 34 34 34 35 35 34 33 33 33 33 32 31 29 28 27 25 25 24 24 23 23 22 20 20 20 19 19 19 18 18 17 16 16 15 15 16 16 17 18 13 13 17 18 18 19 18 17 17 18 18 18 19 20 21 21 22 22
57 56 55 54 54 53 52 51 50 49 48 47 47 46 45 44 44 43 43 42 42 41 40 40 39 38 37 37 37 36 36 35 35 36 36 36 36 35 35 35 34 34 32 31 30 29 28 27 26 25 25 24 23 22 21 21 21 21 20 20 19 17 16 16 16 15 17 18 18 19 15 13 18 20 20 21 20 19 19 19 19 20 20 21 22 23 23 24
58 58 57 56 55 54 53 52 51 50 49 48 47 47 46 45 45 44 43 43 43 42 42 41 40 39 39 38 38 37 36 36 36 36 37 38 38 37 37 36 36 35 34 33 32 31 30 29 28 27 27 26 25 24 23 23 23 23 22 21 20 18 18 18 17 18 19 19 19 21 17 13 18 21 22 22 21 21 21 21 21 21 22 23 24 25 25 26
60 59 58 57 56 55 54 53 52 51 50 49 48 48 47 46 45 45 44 44 43 43 43 42 41 40 40 39 38 38 37 37 37 37 38 39 39 39 38 38 38 37 36 35 34 33 32 31 31 30 29 28 27 26 26 26 26 26 24 22 21 20 20 19 20 20 21 21 21 22 19 14 17 22 22 23 23 22 22 23 23 22 23 25 26 27 27 28
61 60 60 59 58 57 56 55 53 52 51 50 50 49 48 47 46 46 45 45 44 44 44 43 42 42 41 40 39 39 38 37 37 38 38 39 40 41 40 40 39 39 38 37 36 36 34 34 33 32 31 30 29 29 29 29 29 28 26 24 23 23 22 22 22 23 23 24 23 24 22 17 18 22 23 24 24 24 23 24 24 24 25 27 28 29 30 30
61 61 61 60 60 59 57 56 55 54 53 52 51 50 49 49 48 47 47 46 45 45 45 45 44 43 42 41 40 40 39 38 38 39 39 40 41 42 42 42 41 40 40 39 39 38 37 36 35 34 34 32 31 32 32 32 30 28 27 27 26 26 25 25 25 26 26 26 26 26 24 21 21 23 24 26 26 25 24 25 26 26 27 29 30 31 31 31
61 61 61 61 61 61 59 58 57 56 55 53 53 52 51 50 50 49 48 47 47 47 46 46 45 44 43 42 42 41 40 40 39 40 40 40 41 42 43 43 43 42 42 41 41 40 39 38 37 37 35 34 35 35 35 33 31 30 30 30 29 28 28 28 28 28 28 29 28 28 28 26 24 24 26 28 28 26 26 27 27 28 29 30 31 32 33 32
60 60 61 61 61 61 61 60 59 58 57 56 55 54 53 52 51 51 50 49 48 48 47 46 46 45 45 44 44 44 43 42 41 41 41 41 41 42 44 44 45 44 44 43 42 41 40 40 40 38 37 37 38 37 36 34 33 33 33 32 32 31 31 31 31 31 31 31 30 29 31 30 28 27 28 30 30 29 28 29 29 29 30 31 33 33 34 33
57 59 60 61 61 61 61 61 60 60 59 58 57 56 55 54 53 52 51 51 50 49 48 48 47 47 47 46 46 45 45 44 43 42 42 41 42 43 44 45 46 46 45 44 44 43 43 43 41 40 40 40 40 39 38 37 36 36 35 35 35 35 34 34 34 33 33 34 32 31 33 33 32 31 30 31 32 32 31 31 30 30 31 32 34 34 34 34
55 56 58 59 60 60 60 60 60 60 60 59 59 58 57 56 55 54 53 53 52 51 50 49 48 48 47 47 47 46 46 46 45 44 43 42 43 43 44 44 46 47 47 47 46 46 45 45 43 43 43 43 42 41 40 39 39 38 38 38 38 37 37 37 36 36 35 36 35 35 36 35 34 34 33 33 34 33 33 32 31 32 32 33 34 35 35 34
54 55 56 57 58 58 59 59 59 59 59 59 59 58 58 57 56 56 55 55 54 53 52 51 50 49 48 47 47 47 47 47 46 45 44 44 44 44 44 44 46 47 48 48 48 48 47 46 46 46 46 45 44 43 42 42 41 41 41 40 40 40 40 40 38 38 38 38 38 38 39 38 37 37 35 34 35 35 34 33 32 32 33 34 35 35 35 34
56 55 55 56 56 57 57 58 58 58 58 58 58 58 58 57 57 56 56 56 56 55 54 53 51 50 49 48 47 47 48 48 48 47 46 45 45 45 45 45 46 47 48 49 50 50 50 49 49 48 48 47 47 45 44 44 43 43 43 42 42 42 42 41 40 40 40 40 41 41 43 41 39 38 36 35 36 36 35 34 33 32 33 34 35 35 34 34
57 56 55 55 56 56 56 57 57 57 57 57 57 57 57 57 57 57 56 57 58 56 55 54 53 51 50 49 48 48 49 49 48 48 47 46 46 46 46 46 47 47 48 49 50 51 51 51 51 50 50 49 48 47 46 46 46 45 45 45 44 44 43 42 42 42 42 42 42 43 47 46 41 39 37 36 37 37 36 34 33 32 33 34 35 34 34 33
60 58 57 56 56 56 56 56 56 56 57 56 56 56 56 56 56 57 56 58 60 59 57 56 54 53 51 50 49 49 50 49 49 49 49 48 48 47 48 48 47 48 48 49 50 51 52 53 53 52 51 50 50 49 48 48 47 47 47 46 46 45 44 43 43 43 44 44 44 45 49 50 47 42 39 38 39 37 36 34 32 32 33 34 35 35 34 33
61 60 59 58 56 56 55 55 55 56 55 55 55 54 55 55 55 56 55 58 62 60 57 58 57 54 52 51 51 51 51 50 49 51 51 50 50 49 49 49 48 48 49 49 50 51 51 51 52 53 53 52 52 50 49 48 49 50 49 47 46 45 44 44 43 43 44 46 48 48 49 51 51 45 42 41 41 38 36 34 32 31 32 33 35 35 34 33
62 62 61 60 59 57 56 55 55 55 54 53 53 53 54 54 54 55 54 57 64 62 58 59 58 56 54 53 53 52 52 51 51 52 52 52 52 51 51 50 49 50 50 50 51 51 50 51 52 53 54 54 53 51 50 50 50 51 49 48 47 45 44 44 43 44 45 47 51 51 48 50 52 50 47 44 42 40 37 35 33 33 33 34 34 33 33 33
63 63 62 61 61 60 59 57 56 55 55 54 54 53 54 54 54 54 54 59 65 64 60 59 58 58 57 55 55 54 53 53 53 52 52 52 53 52 52 51 50 51 51 51 51 51 51 52 52 53 54 54 53 52 50 50 50 50 50 49 47 45 44 43 44 45 46 50 54 52 47 49 54 54 49 45 43 42 39 38 37 36 35 35 33 33 33 34
65 64 63 63 62 61 60 58 57 57 56 55 55 54 54 54 54 54 56 61 65 64 62 60 59 59 58 57 56 55 55 54 54 52 52 52 52 52 52 51 51 51 51 52 52 52 52 52 52 53 53 53 52 51 50 50 50 50 49 48 46 45 44 44 45 46 49 53 55 52 48 50 58 58 48 44 45 43 41 41 41 40 39 37 35 33 34 34
65 65 65 64 63 62 61 59 58 58 57 56 56 56 55 55 55 57 60 61 62 64 63 60 59 58 57 56 55 54 54 54 54 53 52 51 51 52 51 51 51 51 51 51 52 52 52 51 51 51 51 50 50 50 50 49 48 48 47 45 44 44 44 45 47 49 52 55 54 51 50 53 61 60 49 44 45 44 44 44 44 44 43 41 38 35 34 34
63 65 66 66 64 64 62 62 61 59 60 59 58 59 58 57 59 61 61 59 61 66 65 60 57 57 56 56 55 54 53 54 54 53 52 51 51 51 50 50 49 49 50 50 50 50 50 50 49 49 49 49 49 49 48 47 46 45 43 42 42 43 45 48 50 52 53 54 53 52 53 57 60 56 48 45 45 46 47 47 46 46 45 44 41 37 35 35
61 62 64 65 65 65 65 64 63 62 61 61 61 62 61 62 64 63 60 59 62 66 65 60 58 57 57 57 55 54 54 54 54 53 53 52 52 52 51 51 50 51 51 50 49 49 50 50 50 50 50 49 47 46 45 44 43 41 41 41 42 44 47 50 52 52 53 52 52 52 55 58 57 51 46 45 46 47 48 48 48 47 46 45 41 37 37 36
60 61 62 62 63 67 69 67 66 65 64 64 64 65 65 66 65 62 61 61 63 64 62 60 58 56 57 57 55 54 54 54 54 54 53 53 53 53 52 52 51 51 51 50 50 49 50 51 49 48 47 46 44 43 42 41 41 42 42 43 45 47 49 50 51 51 52 53 53 55 57 57 53 49 48 48 47 46 45 47 49 49 48 46 41 39 38 37
57 60 61 61 62 65 67 68 68 67 67 67 66 66 69 69 65 62 63 64 63 63 62 61 60 57 56 55 55 54 53 53 53 53 54 53 52 52 51 50 50 50 49 50 50 49 49 50 47 45 45 43 42 41 41 41 41 42 43 45 47 47 47 48 49 51 52 55 56 57 58 56 53 52 51 50 47 44 44 46 49 50 49 46 44 42 41 39
57 59 60 59 59 60 62 65 68 70 71 70 70 70 70 68 64 62 64 64 62 61 61 63 62 60 57 55 55 55 54 53 52 52 53 53 52 51 50 49 49 49 49 49 49 48 48 48 46 45 44 43 43 42 42 42 43 44 45 47 47 45 45 47 50 52 53 56 59 59 58 57 56 53 50 48 46 45 46 48 50 50 48 46 45 45 43 40
62 61 61 59 56 56 59 61 63 68 72 74 75 73 69 65 62 63 64 62 61 61 61 63 64 61 59 57 56 55 54 54 52 52 51 51 52 50 49 48 48 47 47 47 48 48 47 47 47 46 46 45 45 45 46 46 47 48 49 48 46 46 48 50 52 54 54 57 60 60 59 60 58 52 45 45 46 47 48 49 49 49 48 47 46 43 42 39
62 58 56 57 59 58 58 59 60 64 70 75 77 73 66 62 60 62 63 60 61 62 63 65 65 63 62 60 58 57 57 56 55 54 52 52 52 49 48 48 47 46 46 46 47 47 47 48 49 49 48 48 48 48 49 50 50 50 48 46 46 48 50 50 52 53 54 57 60 61 61 59 55 50 46 48 50 50 50 49 49 49 49 48 45 40 39 38
59 54 50 50 55 60 61 60 61 64 70 75 73 66 61 59 59 62 62 60 61 63 63 64 64 64 64 62 60 59 59 59 57 57 56 55 53 51 50 49 48 48 47 47 48 48 48 50 52 52 51 51 51 51 52 51 49 48 47 47 48 50 52 52 53 53 54 57 59 61 61 55 49 48 50 52 52 51 52 50 48 49 48 46 43 39 38 38
57 54 52 49 49 56 62 63 63 67 73 74 68 61 58 58 58 59 58 59 62 62 62 62 63 64 64 62 61 60 59 59 58 59 59 59 58 56 54 53 52 51 50 49 49 49 51 52 54 56 54 54 54 53 51 49 47 47 49 51 52 52 54 55 55 55 55 57 58 60 60 53 49 50 50 51 51 49 50 50 48 48 47 44 43 41 39 38
57 54 54 53 49 50 56 60 61 64 68 70 67 64 64 62 58 56 57 59 61 60 58 58 60 62 62 62 61 59 59 58 58 58 59 59 60 60 59 58 56 54 53 53 53 52 53 53 54 56 56 56 54 52 50 49 50 50 52 54 55 55 55 55 57 58 57 57 57 60 61 52 48 51 49 49 52 50 49 49 48 47 46 44 42 41 41 40
60 55 54 54 50 47 50 54 56 58 61 63 62 63 66 65 61 60 61 60 59 59 58 59 60 60 61 61 61 61 61 60 60 59 58 57 57 58 59 59 58 57 56 57 56 56 56 57 58 59 59 59 57 55 55 55 56 56 57 59 59 59 59 58 59 59 58 59 58 62 65 52 46 52 51 50 53 51 48 49 49 47 45 42 39 38 41 42
63 59 56 55 49 45 46 50 53 54 54 56 57 60 65 66 63 63 64 62 61 61 61 61 62 62 62 62 62 63 63 62 62 60 58 57 56 56 58 59 59 58 58 59 59 59 59 61 62 63 63 62 61 61 61 61 63 64 64 64 62 62 61 59 61 60 60 63 62 65 67 54 46 53 54 52 54 52 49 49 49 47 44 41 38 38 41 41
65 62 61 59 54 49 48 48 50 51 49 49 52 57 62 65 66 65 65 65 65 64 64 64 63 63 64 64 64 64 63 63 62 60 58 57 57 56 57 59 59 59 59 59 59 58 58 58 60 61 63 65 66 66 67 67 68 67 66 64 63 63 61 60 61 59 61 64 63 65 66 53 47 54 56 53 53 52 51 49 47 47 45 41 40 40 41 40
66 64 64 63 61 58 55 51 49 50 49 47 48 50 54 59 61 62 62 61 60 61 63 64 63 63 63 64 65 65 64 64 62 60 59 58 58 58 59 59 59 59 58 58 58 57 56 55 55 57 61 65 67 67 67 66 65 64 63 62 61 61 59 59 57 57 62 66 63 65 65 55 51 56 57 55 54 53 52 50 47 48 46 44 42 42 41 40
66 65 65 65 65 64 61 57 54 53 51 51 50 48 49 50 52 54 57 57 54 53 56 58 58 59 60 61 63 64 65 65 64 63 62 61 60 60 61 61 60 60 59 58 57 56 56 56 56 57 59 63 64 63 62 61 60 60 59 59 58 57 56 56 56 59 64 65 64 65 64 60 55 54 55 55 54 54 53 51 50 50 49 48 44 42 41 41
66 65 64 64 64 65 65 63 60 57 54 52 52 50 49 48 49 51 54 55 54 51 51 53 55 56 56 56 58 61 63 63 64 64 61 60 60 61 62 62 62 61 61 61 60 59 60 61 61 61 61 62 61 60 60 60 60 60 59 58 57 56 55 57 60 64 64 64 65 63 61 62 58 52 54 54 52 54 54 51 50 51 53 52 46 41 41 42
67 67 65 62 62 63 64 64 63 61 58 56 55 52 50 50 51 52 51 52 53 53 52 53 54 53 52 51 52 55 57 58 60 60 58 57 57 58 59 60 61 62 62 63 63 62 62 63 64 64 64 62 60 59 60 62 61 61 61 60 60 59 60 62 65 66 64 65 68 63 60 64 60 52 53 52 51 55 55 51 51 53 53 53 49 45 45 46
67 67 65 63 62 63 62 61 61 62 61 62 61 58 55 53 52 52 53 53 54 55 56 56 53 50 49 49 51 54 56 56 57 56 55 53 52 52 54 55 58 59 61 62 63 63 63 64 64 64 65 64 62 60 61 63 63 63 63 64 63 64 64 65 67 66 64 67 68 63 61 64 59 53 53 51 52 56 55 51 52 53 52 52 51 51 50 50
67 67 66 64 63 63 63 61 61 61 61 61 62 62 61 59 55 53 54 55 54 54 56 56 53 51 51 52 53 54 55 55 54 52 50 50 50 51 52 54 54 55 56 57 58 59 59 60 59 60 62 63 62 61 61 62 63 64 64 64 64 65 66 68 68 67 67 67 65 62 62 62 57 53 52 51 52 57 57 54 53 52 52 52 52 51 52 53
66 67 66 65 63 63 63 62 61 62 61 61 59 59 61 62 61 59 59 59 56 53 51 51 52 54 56 56 55 52 51 51 51 50 50 51 53 54 54 54 54 54 54 53 51 51 51 52 51 52 55 56 55 56 56 55 57 58 59 61 63 64 66 66 65 64 65 65 63 62 64 63 57 53 53 53 54 57 57 56 54 53 53 53 52 52 53 54
66 67 67 67 65 64 64 63 62 62 62 62 60 59 59 60 62 64 65 64 62 57 51 48 49 52 55 56 56 53 50 49 51 52 53 53 54 55 56 56 55 54 53 51 51 49 49 49 48 49 52 51 46 46 48 50 54 56 56 58 60 60 59 59 60 60 60 60 60 62 63 62 58 55 55 55 55 55 56 56 56 56 56 56 55 54 54 55
Wind_Direction
189 189 190 190 191 191 191 192 192 192 193 193 194 195 195 196 198 199 200 200 200 201 201 201 201 201 200 200 200 200 200 201 201 202 202 201 201 202 203 204 206 209 211 213 215 217 218 219 219 219 217 215 215 214 215 216 218 219 221 229 239 245 251 257 264 269 272 273 275 278 280 282 282 285 289 292 296 299 306 311 313 314 314 312 312 313 315 318
190 191 191 192 192 192 193 193 193 194 194 195 195 197 198 199 201 202 203 203 203 203 203 203 203 202 202 202 203 202 203 205 206 206 206 205 204 203 204 205 206 208 209 211 213 214 214 214 213 212 211 210 210 211 211 211 215 219 225 235 244 250 256 260 264 269 271 272 275 277 278 277 276 280 284 290 294 298 307 309 311 314 313 311 312 313 315 318
192 193 193 193 194 194 194 195 195 195 196 196 197 199 200 202 204 205 205 205 206 206 205 205 205 204 204 204 205 206 207 208 209 209 208 206 204 204 204 204 205 207 207 208 210 210 209 208 208 207 207 206 206 208 210 214 218 224 231 239 245 251 256 259 262 265 269 272 273 274 274 271 271 276 283 290 293 301 309 307 309 313 311 310 311 313 316 317
194 195 195 196 196 196 196 197 197 197 198 199 200 201 203 204 206 207 208 208 207 207 207 207 207 207 206 207 208 210 211 211 211 210 207 205 203 202 202 202 203 204 204 204 206 206 205 203 203 204 204 204 206 211 215 220 225 230 236 240 246 251 252 255 257 260 266 269 270 268 268 270 272 279 285 290 295 304 308 307 310 312 310 309 310 313 315 315
196 197 197 198 198 198 198 199 199 200 200 201 202 204 205 207 208 209 210 210 209 208 208 208 208 209 209 210 211 213 214 213 211 208 205 203 201 199 199 200 200 201 200 201 202 202 201 200 201 202 204 207 211 215 218 224 228 232 237 239 243 247 248 251 253 256 261 261 262 265 268 273 278 283 286 290 299 305 306 308 311 311 308 308 310 312 312 312
199 199 200 200 201 201 201 201 201 202 203 204 205 206 208 209 211 211 211 211 210 209 209 209 209 210 211 212 213 215 215 214 211 207 204 202 200 199 198 197 197 197 197 198 199 199 198 199 202 205 208 211 215 218 220 225 231 231 233 236 238 243 245 247 252 254 256 257 260 267 274 276 281 285 286 291 302 304 304 308 309 308 307 307 309 310 310 309
201 202 202 203 203 203 203 203 203 204 205 205 207 208 210 211 212 212 212 212 211 210 210 210 210 211 211 213 214 215 215 213 211 207 204 203 201 199 197 196 196 195 195 196 197 197 199 202 205 209 213 216 220 222 225 229 232 232 232 236 238 242 246 249 253 256 259 263 267 273 277 278 282 286 286 292 303 302 302 305 307 306 306 307 308 307 307 305
204 204 204 205 205 205 206 206 206 206 206 207 208 210 212 213 214 214 214 213 212 211 211 211 211 212 212 213 214 215 215 212 210 208 205 204 202 200 198 197 195 194 195 195 197 200 203 207 210 215 218 220 224 226 229 231 233 235 235 238 241 243 249 252 255 261 265 269 275 278 281 282 285 286 286 294 302 300 302 305 306 305 305 306 306 305 304 303
206 206 206 207 207 207 208 208 208 208 208 209 210 212 213 215 215 215 215 214 213 212 212 212 212 213 213 214 215 215 215 213 210 208 207 205 203 202 200 198 196 195 197 198 201 205 209 212 215 219 221 222 225 227 229 231 233 236 237 240 244 247 251 254 260 265 269 275 279 281 283 286 289 286 287 296 300 299 303 306 306 305 305 305 305 304 303 302
209 209 208 209 209 209 210 210 210 210 211 211 212 214 215 216 216 216 216 215 214 213 213 213 213 214 215 215 215 216 215 213 211 209 208 206 205 203 201 199 198 198 199 202 206 210 213 216 218 221 222 223 226 228 230 233 235 238 240 242 245 249 253 257 262 267 271 276 279 279 284 289 291 286 288 298 301 301 305 306 307 306 306 306 306 305 304 303
210 211 211 211 211 211 212 212 212 213 213 214 215 216 217 217 218 218 217 216 215 215 214 214 214 214 215 216 216 216 215 214 213 211 209 208 207 205 204 201 201 202 203 206 210 213 216 218 220 222 224 225 227 229 231 235 237 240 243 245 248 251 255 259 264 269 273 275 277 278 284 290 290 287 292 300 301 302 306 306 307 307 307 308 307 306 305 304
213 212 213 213 213 214 214 214 215 215 215 216 217 218 218 219 219 219 218 218 217 216 215 214 215 215 216 217 218 217 216 215 214 212 211 209 208 207 206 205 204 205 206 209 211 215 218 220 222 223 225 227 228 230 233 237 240 243 245 246 249 252 257 262 265 269 273 275 278 279 282 288 286 287 295 299 300 303 305 306 307 308 309 309 308 307 305 304
215 215 215 215 215 216 216 216 217 217 218 219 220 220 221 221 221 220 219 219 218 218 217 216 215 216 217 218 218 218 217 216 215 214 213 211 210 209 209 208 208 208 209 211 213 216 219 222 224 225 227 229 231 233 235 239 243 245 247 247 250 254 259 262 266 270 274 276 277 277 279 283 284 288 294 295 298 301 303 305 306 308 309 310 308 306 304 303
216 217 217 217 217 218 218 219 219 220 220 221 223 223 224 224 223 222 221 221 220 219 219 218 217 217 217 218 219 218 218 218 216 215 215 214 212 211 211 211 211 212 212 214 216 218 221 224 226 227 229 231 234 236 238 242 245 246 248 249 251 255 260 264 269 272 274 274 275 276 278 280 283 288 291 292 296 299 301 304 305 308 309 309 307 305 304 303
217 218 218 219 219 219 220 220 221 222 223 223 224 225 226 226 225 225 223 223 222 221 221 220 219 218 219 220 220 220 219 219 219 217 216 216 215 214 214 214 214 215 216 217 219 221 223 226 228 229 231 233 236 238 241 244 246 248 249 250 254 258 261 266 270 271 272 273 275 278 280 281 284 287 289 291 294 297 300 302 304 307 307 306 305 305 304 303
217 218 218 219 220 221 221 222 223 223 224 225 225 226 226 226 226 226 226 225 224 223 223 223 222 221 221 221 222 222 221 221 221 220 219 218 218 217 216 216 217 218 219 220 221 223 226 227 230 231 233 235 238 240 243 245 247 249 250 252 256 260 262 265 268 270 272 274 276 279 283 286 284 285 289 292 294 296 298 301 303 304 304 304 305 305 304 303
218 218 219 219 220 221 222 223 224 225 225 226 226 226 227 227 227 227 227 227 227 226 225 225 225 224 224 224 224 224 223 223 223 223 222 221 220 220 219 219 219 220 221 222 224 225 227 229 231 233 235 237 239 242 244 246 247 250 253 255 258 260 263 265 267 270 272 275 277 280 285 288 284 285 291 292 294 296 299 301 301 302 302 304 304 305 305 303
218 219 219 220 220 221 222 224 224 225 226 226 227 227 227 228 228 228 229 229 229 228 228 227 226 226 226 226 226 227 226 226 225 225 224 224 223 222 222 222 222 222 223 224 226 227 229 231 233 235 237 238 241 243 244 246 248 252 255 257 258 260 262 265 266 269 273 276 278 281 285 286 285 287 292 292 294 298 300 301 301 301 303 303 304 305 305 304
218 219 220 220 221 221 222 223 224 225 226 227 227 228 228 229 229 229 230 230 230 231 231 230 230 230 229 228 228 229 229 228 227 227 227 227 226 225 225 224 225 225 225 226 227 229 231 233 235 236 238 240 241 243 245 248 250 253 255 257 259 261 263 264 266 269 273 276 278 283 286 286 286 288 290 292 295 299 300 300 300 303 303 303 303 305 305 304
218 219 220 221 221 222 222 223 224 225 226 227 228 228 229 229 230 231 231 232 232 233 233 233 233 232 231 230 230 230 230 230 229 229 229 229 229 228 228 227 227 227 228 229 229 231 232 234 236 238 239 240 242 244 247 249 251 252 255 258 260 262 263 263 266 269 272 275 278 281 284 286 287 287 288 290 295 298 298 298 301 303 302 303 304 305 306 304
220 220 221 221 222 223 223 224 224 225 226 227 227 228 229 230 231 232 232 233 234 234 234 234 234 233 233 232 231 231 231 231 231 231 231 231 231 231 231 230 230 230 230 231 232 233 234 236 237 238 239 241 243 245 247 249 251 253 255 258 260 262 263 264 266 268 271 275 278 280 282 284 286 286 287 289 293 296 297 299 302 301 302 303 304 305 306 304
221 221 221 222 223 223 224 224 225 225 226 227 228 228 229 230 231 232 232 233 234 234 234 235 235 235 235 234 233 233 232 232 232 232 232 232 233 233 233 233 233 233 233 233 234 234 235 237 238 239 240 242 244 245 247 249 251 253 256 258 260 261 263 264 266 268 271 275 278 280 281 282 283 285 286 288 291 294 296 298 300 300 302 304 305 305 305 303
222 222 222 222 223 224 224 225 225 226 227 228 228 229 230 231 231 232 232 233 233 233 234 234 235 235 235 235 234 233 233 233 233 233 233 233 234 235 235 235 235 235 235 235 235 236 236 237 238 240 241 243 244 246 247 249 251 253 255 258 259 261 262 264 266 269 272 275 278 281 280 279 281 283 285 288 290 292 294 296 298 300 303 304 305 305 303 298
222 222 223 223 223 224 224 225 226 226 227 228 229 230 231 232 232 233 233 234 234 234 234 234 234 235 235 235 234 234 233 233 233 233 233 234 235 236 237 237 237 237 237 237 238 238 238 238 239 240 242 243 245 246 248 249 251 253 254 257 258 259 262 264 267 269 272 275 278 282 281 279 279 281 284 286 288 290 292 295 298 300 302 304 304 303 300 294
222 222 223 223 223 224 224 225 226 226 227 228 229 230 231 232 232 233 234 234 235 235 235 235 235 235 235 235 235 234 233 232 233 234 234 236 237 238 238 239 239 239 239 240 240 240 240 241 241 242 243 244 245 247 248 250 251 252 253 255 256 259 261 264 267 269 272 274 277 281 282 281 281 282 284 285 285 287 290 294 298 300 302 302 302 301 298 293
223 223 223 224 224 224 225 225 225 226 227 228 228 229 230 231 232 233 234 235 235 235 236 236 236 236 236 237 236 235 235 234 234 236 237 238 239 240 241 241 242 242 242 242 242 242 243 243 244 244 245 246 247 248 249 250 251 252 253 254 257 259 262 264 266 269 271 274 277 278 279 283 284 283 284 285 284 286 289 294 298 299 300 301 302 302 298 293
226 224 223 224 225 225 225 225 226 226 227 227 228 228 229 230 231 232 233 235 235 234 236 237 237 238 238 238 238 238 237 237 237 238 239 241 242 243 243 244 244 244 244 245 245 245 245 246 246 247 247 247 247 248 249 250 251 252 254 256 258 260 262 264 266 268 271 274 276 276 278 283 285 285 286 285 284 287 291 295 297 297 299 301 303 301 297 293
228 227 225 224 225 225 225 226 226 226 227 227 227 228 228 229 230 231 231 234 234 233 234 237 238 238 238 239 239 240 239 238 239 240 241 242 243 244 245 245 245 245 245 245 246 245 245 246 246 247 247 247 248 248 249 250 252 254 255 257 258 260 262 264 266 269 271 273 275 276 278 282 284 285 286 286 288 292 295 296 296 297 300 302 303 299 295 290
228 228 228 227 226 226 226 227 227 227 227 227 227 228 229 229 229 230 231 233 234 233 233 235 237 238 238 239 240 241 241 240 240 240 241 242 243 244 244 245 245 246 246 246 246 246 245 246 246 247 247 248 248 249 250 251 253 255 256 258 259 261 263 265 267 269 271 272 274 277 278 281 283 282 283 287 292 295 297 297 297 299 301 303 303 298 293 288
228 228 228 229 229 228 228 227 227 228 228 227 228 229 229 230 230 230 231 232 234 235 234 233 235 237 238 239 239 240 241 242 241 241 241 242 243 244 244 244 245 246 246 246 246 247 247 247 247 247 248 249 250 250 251 252 254 255 257 259 261 263 264 266 267 268 269 270 273 276 278 281 281 279 282 290 293 295 297 298 299 301 302 304 302 297 292 288
230 229 229 229 230 230 229 227 227 227 228 228 228 229 229 230 231 232 233 233 235 237 236 234 234 236 238 239 239 240 240 241 242 242 242 242 244 244 245 245 246 247 247 248 248 249 249 249 249 249 250 250 251 251 252 253 254 255 257 260 263 265 266 266 266 267 267 269 273 276 277 278 276 278 285 292 293 296 297 298 300 301 303 304 302 298 295 291
231 231 231 231 230 230 229 228 228 228 228 229 229 229 229 230 230 232 233 233 235 237 237 235 234 236 238 238 238 239 239 240 241 242 242 241 242 243 245 246 246 248 248 249 250 250 250 250 250 250 250 250 250 251 252 254 255 258 260 262 264 265 265 265 265 265 267 270 274 275 276 275 274 278 286 290 292 295 296 297 299 301 302 303 301 301 301 297
231 232 233 233 232 231 230 230 229 228 228 229 230 230 229 229 231 234 235 234 236 238 238 237 235 234 236 236 237 238 239 240 240 241 241 240 240 241 242 243 244 245 247 247 248 248 248 249 249 250 250 250 251 252 254 255 257 259 259 260 261 263 264 264 266 267 269 271 273 273 274 273 275 280 285 287 289 291 293 296 298 300 301 300 301 302 303 300
229 231 232 232 232 231 230 231 230 229 230 229 230 231 230 231 233 235 236 236 237 239 240 240 237 235 235 236 237 237 238 239 240 241 242 242 241 241 241 243 244 245 246 247 247 248 249 249 250 252 253 253 254 255 255 256 257 257 257 258 259 260 263 265 268 269 270 271 271 271 272 273 277 282 284 284 286 288 291 295 297 299 299 300 302 303 302 299
228 230 231 231 231 231 231 232 233 232 231 231 231 232 232 233 235 236 236 237 237 239 240 241 240 237 236 237 238 238 238 239 240 241 242 243 243 243 243 243 244 246 247 248 249 250 251 252 253 254 255 256 256 256 256 256 256 256 257 257 258 260 263 265 267 268 269 270 270 271 272 274 278 280 281 283 286 289 292 294 295 296 297 299 303 304 303 298
227 229 233 232 231 232 232 232 233 234 234 233 232 232 234 237 238 238 237 238 238 239 241 242 243 241 238 237 238 239 239 239 239 240 241 243 244 244 244 244 245 246 247 249 250 251 252 253 253 254 255 255 255 256 255 255 255 255 254 255 257 259 261 262 264 265 267 269 271 273 274 276 278 277 277 282 287 290 291 292 293 293 295 299 302 303 302 299
221 223 229 233 231 231 231 231 231 232 234 235 235 235 238 242 242 241 240 240 240 241 242 244 246 245 243 241 240 241 242 242 241 241 241 242 244 244 245 246 246 247 248 250 252 252 253 254 253 254 255 254 254 255 254 254 254 254 254 255 257 258 259 260 262 264 266 268 270 273 274 276 277 276 279 285 288 289 290 291 290 292 296 299 300 300 299 297
211 213 220 229 232 230 230 230 229 229 232 235 236 237 240 242 243 243 243 243 243 243 243 245 247 248 247 245 243 242 243 244 244 244 244 244 244 244 245 247 248 249 249 250 251 251 252 253 252 252 253 253 252 252 252 252 253 254 256 257 258 259 260 261 262 264 266 268 269 271 273 274 276 279 285 288 288 288 289 288 289 293 297 299 299 298 296 293
214 215 215 219 227 229 227 228 231 232 232 233 235 236 238 238 238 240 241 241 242 242 242 244 246 248 248 247 246 244 244 244 244 245 245 245 244 242 243 244 246 247 247 247 248 248 249 251 250 250 250 250 250 249 250 251 254 256 257 257 257 258 260 260 261 263 265 268 270 271 274 276 278 283 286 285 285 287 287 288 292 296 297 297 297 296 293 289
224 225 219 213 218 222 222 224 228 232 234 235 235 234 235 235 235 236 238 239 240 241 240 241 244 246 247 247 247 246 246 245 245 245 245 244 243 242 241 241 242 244 245 246 247 247 247 248 249 249 249 250 250 251 253 254 256 256 256 256 256 257 259 260 261 262 263 265 268 271 276 279 279 281 282 282 285 286 287 291 295 297 296 296 295 294 291 287
225 226 222 218 219 218 217 218 219 223 230 235 237 236 235 234 233 235 237 238 240 241 241 242 243 245 246 247 247 246 246 245 244 245 244 243 242 242 242 243 243 244 246 248 248 248 249 250 250 251 251 252 252 253 254 254 253 254 254 254 255 255 257 258 259 260 262 265 268 272 275 276 278 280 281 283 285 286 289 293 295 295 295 294 294 294 290 287
226 225 222 222 224 222 221 221 218 217 223 231 236 237 235 234 234 235 236 237 238 239 240 242 243 244 245 246 247 246 246 245 244 243 242 241 241 243 244 246 246 246 247 249 249 249 251 252 251 251 251 252 252 252 252 252 252 252 252 253 254 254 256 258 261 264 266 268 270 271 272 274 278 280 281 282 284 287 291 292 292 292 292 292 294 293 289 287
230 227 224 223 223 224 227 229 226 221 220 225 230 233 233 233 233 234 236 237 238 239 240 241 242 243 244 245 246 247 246 245 244 242 241 240 239 240 243 245 246 246 247 248 249 250 251 251 251 252 252 253 253 253 253 253 253 253 254 255 256 257 259 261 263 265 267 268 270 271 271 274 278 279 281 283 285 289 290 288 289 290 289 291 292 290 287 288
234 231 229 226 224 222 223 229 233 230 224 221 223 226 228 230 232 234 235 237 239 240 241 242 242 243 244 244 245 246 247 246 245 243 241 240 239 239 242 245 246 248 248 249 250 250 251 251 252 252 252 252 252 253 253 254 255 256 257 259 260 261 263 263 264 266 266 267 269 268 269 275 281 282 284 285 286 287 286 285 287 286 287 290 291 289 289 290
235 234 233 230 229 227 223 223 228 232 232 228 224 223 223 225 228 231 232 234 236 239 241 242 243 245 245 244 244 245 247 247 247 245 243 242 240 240 242 244 245 247 249 250 250 250 250 250 249 249 250 251 252 254 255 257 258 259 260 261 262 263 263 264 265 264 264 266 265 264 268 276 281 281 282 283 283 284 285 285 285 284 286 289 290 290 290 288
235 235 234 233 232 232 230 225 223 225 229 230 230 227 224 222 222 224 226 228 229 233 237 238 240 243 244 244 245 246 246 247 248 248 247 246 243 242 242 243 244 246 248 249 249 249 249 249 249 249 250 251 253 255 256 257 257 258 259 260 261 262 263 264 262 262 264 267 265 265 271 276 276 276 278 280 281 283 283 284 284 286 288 288 288 289 286 283
235 235 235 234 234 234 234 231 227 223 222 225 228 229 228 225 222 222 223 223 223 225 232 235 234 236 238 240 243 245 246 247 248 249 249 249 248 246 245 244 245 245 247 249 249 248 249 249 249 250 251 252 253 254 255 256 256 257 258 258 259 260 261 261 262 264 266 267 266 268 272 273 272 273 274 276 279 281 281 283 286 287 287 286 285 284 280 276
234 236 235 234 234 235 236 236 234 230 225 223 224 225 226 226 225 224 223 223 223 225 230 233 233 233 234 236 239 241 243 244 245 247 248 249 249 249 248 247 247 246 248 249 250 250 251 251 250 252 253 253 253 254 255 257 258 259 259 259 259 259 260 261 263 266 267 267 268 271 271 271 272 274 274 276 278 277 279 283 284 282 281 281 281 278 275 274
233 235 236 235 235 235 236 236 237 235 232 229 226 225 224 225 225 225 224 226 229 229 230 233 233 233 233 233 235 238 239 241 243 246 247 248 248 248 248 248 248 248 248 249 249 250 252 252 252 254 255 254 253 253 256 258 258 258 259 259 259 260 261 263 265 266 266 266 269 271 270 271 273 275 276 278 278 277 277 277 276 275 277 278 278 278 277 276
233 234 235 236 235 236 235 234 234 235 234 232 231 230 229 227 226 226 226 228 232 233 232 232 233 233 232 230 231 233 235 238 241 242 242 242 243 244 245 246 246 247 247 248 249 250 252 254 255 256 257 256 254 254 256 258 258 258 258 259 260 261 262 263 263 264 265 267 270 272 270 270 273 274 275 275 274 274 274 273 272 274 277 278 277 276 275 274
232 233 234 235 234 235 235 233 233 234 234 233 231 231 231 230 229 229 230 230 231 231 231 230 230 230 230 230 231 233 234 237 239 239 239 239 240 241 243 244 245 246 246 247 248 249 250 252 252 252 254 255 256 257 257 257 258 256 255 256 259 261 263 264 263 264 265 267 268 268 268 269 272 273 272 271 270 272 274 276 277 277 276 275 272 270 270 271
231 232 233 234 234 233 233 233 231 230 231 232 232 231 231 231 230 231 232 233 232 230 229 228 227 227 228 229 231 233 235 238 240 240 240 240 240 240 241 242 244 245 246 247 246 245 246 247 246 246 248 251 253 254 252 252 252 251 252 257 261 262 263 264 263 263 263 265 265 264 265 268 270 270 270 272 272 273 274 274 274 274 272 271 269 268 269 270
Height
5800 5803 5806 5809 5812 5814 5817 5820 5822 5825 5828 5830 5832 5834 5836 5838 5840 5842 5844 5846 5848 5849 5851 5852 5854 5855 5857 5858 5860 5862 5863 5865 5867 5868 5870 5871 5873 5874 5875 5877 5878 5880 5882 5883 5885 5886 5887 5889 5890 5891 5892 5893 5894 5895 5895 5896 5897 5898 5898 5899 5899 5900 5900 5901 5901 5900 5901 5901 5900 5900 5900 5900 5899 5899 5898 5898 5898 5898 5898 5898 5897 5897 5896 5895 5895 5894 5893 5893
5798 5801 5804 5807 5810 5812 5815 5818 5820 5823 5825 5828 5830 5832 5834 5837 5839 5841 5843 5844 5846 5848 5849 5851 5853 5854 5856 5857 5859 5861 5862 5864 5866 5867 5869 5870 5872 5873 5874 5876 5877 5879 5881 5882 5883 5885 5886 5887 5889 5890 5891 5892 5893 5894 5895 5895 5896 5897 5897 5898 5899 5899 5899 5900 5900 5899 5899 5899 5899 5899 5899 5899 5899 5898 5898 5897 5898 5898 5898 5897 5896 5896 5895 5895 5894 5893 5893 5892
5796 5799 5802 5805 5807 5810 5813 5816 5818 5821 5823 5826 5828 5830 5832 5835 5837 5839 5841 5843 5845 5846 5848 5850 5851 5853 5855 5856 5858 5860 5861 5863 5864 5866 5867 5869 5870 5872 5873 5875 5876 5878 5879 5881 5882 5884 5885 5886 5888 5889 5890 5891 5892 5893 5894 5895 5895 5896 5897 5897 5898 5898 5898 5899 5899 5898 5898 5898 5898 5898 5898 5898 5898 5897 5897 5897 5897 5897 5897 5896 5896 5895 5894 5894 5893 5892 5892 5891
5794 5797 5800 5802 5805 5808 5811 5813 5816 5819 5821 5824 5826 5828 5831 5833 5835 5837 5839 5841 5843 5845 5846 5848 5850 5852 5853 5855 5857 5858 5860 5862 5863 5864 5866 5867 5869 5870 5872 5874 5875 5877 5878 5880 5881 5883 5884 5885 5887 5888 5889 5890 5891 5892 5893 5894 5895 5895 5896 5896 5896 5897 5897 5897 5898 5897 5898 5898 5897 5897 5897 5897 5897 5897 5896 5896 5896 5896 5896 5895 5895 5894 5893 5893 5892 5891 5891 5890
5792 5795 5798 5800 5803 5806 5808 5811 5814 5817 5819 5822 5824 5826 5829 5831 5833 5835 5837 5839 5841 5843 5845 5847 5848 5850 5852 5854 5855 5857 5859 5860 5862 5863 5865 5866 5868 5869 5871 5872 5874 5876 5877 5879 5880 5882 5883 5884 5886 5887 5888 5889 5890 5891 5892 5893 5893 5894 5895 5895 5895 5896 5896 5896 5896 5897 5897 5897 5897 5896 5897 5896 5896 5896 5895 5895 5895 5895 5895 5894 5894 5893 5892 5892 5891 5890 5889 5889
5790 5792 5795 5798 5801 5804 5806 5809 5812 5814 5817 5820 5822 5824 5827 5829 5831 5833 5836 5838 5840 5841 5843 5845 5847 5849 5850 5852 5854 5856 5857 5859 5860 5862 5864 5865 5867 5868 5870 5871 5873 5875 5876 5878 5879 5881 5882 5883 5885 5886 5887 5888 5889 5890 5891 5891 5892 5893 5893 5894 5894 5895 5895 5895 5895 5895 5896 5896 5896 5896 5896 5895 5895 5894 5894 5894 5894 5894 5894 5893 5893 5892 5891 5890 5890 5889 5888 5887
5787 5790 5793 5796 5799 5801 5804 5807 5809 5812 5815 5817 5820 5823 5825 5827 5829 5831 5834 5836 5838 5840 5842 5844 5845 5847 5849 5851 5852 5854 5856 5858 5859 5861 5862 5864 5866 5867 5869 5870 5872 5874 5875 5877 5878 5880 5881 5882 5884 5885 5886 5887 5888 5889 5889 5890 5891 5892 5892 5892 5893 5893 5894 5894 5894 5894 5894 5895 5895 5895 5895 5894 5894 5893 5892 5893 5893 5893 5892 5892 5892 5891 5890 5889 5889 5888 5887 5886
5784 5787 5790 5793 5796 5799 5802 5804 5807 5810 5812 5815 5818 5820 5823 5825 5827 5829 5831 5834 5836 5838 5840 5842 5844 5845 5847 5849 5851 5852 5854 5856 5858 5859 5861 5863 5864 5866 5868 5869 5871 5873 5874 5876 5877 5878 5880 5881 5882 5883 5884 5886 5886 5887 5888 5889 5890 5890 5891 5891 5892 5892 5892 5893 5893 5893 5893 5893 5893 5893 5893 5893 5893 5892 5890 5891 5892 5891 5891 5891 5890 5890 5889 5888 5887 5886 5886 5885
5781 5784 5788 5791 5793 5796 5799 5802 5804 5807 5810 5812 5815 5818 5820 5822 5825 5827 5829 5831 5833 5836 5838 5840 5842 5843 5845 5847 5849 5851 5852 5854 5856 5858 5859 5861 5863 5865 5866 5868 5870 5871 5873 5874 5876 5877 5878 5880 5881 5882 5883 5884 5885 5886 5887 5888 5888 5889 5890 5890 5890 5891 5891 5891 5891 5892 5892 5892 5892 5892 5892 5892 5891 5890 5889 5890 5890 5890 5890 5889 5889 5888 5888 5887 5886 5885 5884 5883
5778 5781 5784 5787 5790 5793 5796 5799 5802 5804 5807 5810 5812 5815 5817 5819 5822 5824 5826 5829 5831 5833 5835 5837 5839 5841 5843 5845 5847 5848 5850 5852 5854 5856 5858 5859 5861 5863 5865 5866 5868 5870 5871 5873 5874 5875 5877 5878 5879 5881 5882 5883 5884 5885 5885 5886 5887 5887 5888 5889 5889 5889 5890 5890 5890 5890 5890 5891 5891 5891 5891 5890 5890 5888 5888 5889 5889 5888 5888 5888 5887 5887 5886 5885 5885 5884 5883 5882
5774 5778 5781 5784 5787 5790 5793 5796 5799 5802 5804 5807 5809 5812 5814 5816 5819 5821 5823 5826 5828 5830 5833 5835 5837 5839 5841 5842 5844 5846 5848 5850 5852 5854 5856 5857 5859 5861 5863 5865 5866 5868 5870 5871 5873 5874 5875 5877 5878 5879 5880 5881 5882 5883 5884 5885 5885 5886 5886 5887 5887 5888 5888 5888 5889 5889 5889 5889 5889 5889 5889 5889 5888 5887 5886 5887 5887 5887 5887 5886 5886 5885 5884 5884 5883 5882 5881 5880
5770 5774 5777 5781 5784 5787 5790 5793 5796 5799 5801 5804 5806 5808 5811 5813 5815 5818 5820 5823 5825 5827 5830 5832 5834 5836 5838 5840 5841 5843 5846 5847 5850 5851 5853 5855 5857 5859 5861 5863 5864 5866 5868 5869 5871 5872 5873 5875 5876 5877 5878 5879 5880 5881 5882 5883 5884 5884 5885 5885 5886 5886 5887 5887 5887 5887 5887 5887 5887 5887 5888 5888 5886 5885 5885 5885 5885 5885 5885 5885 5884 5884 5883 5882 5881 5880 5879 5878
5768 5771 5774 5777 5781 5784 5787 5790 5793 5796 5799 5801 5803 5806 5808 5810 5812 5815 5817 5819 5822 5824 5827 5829 5831 5833 5835 5837 5839 5841 5843 5845 5847 5849 5851 5853 5855 5857 5859 5860 5862 5864 5865 5867 5869 5870 5871 5873 5874 5875 5876 5877 5878 5879 5880 5881 5882 5882 5883 5883 5884 5884 5885 5885 5885 5886 5885 5885 5885 5884 5886 5886 5884 5883 5883 5883 5883 5883 5883 5883 5883 5882 5881 5880 5879 5878 5877 5876
5764 5767 5770 5774 5777 5780 5784 5787 5790 5793 5796 5798 5801 5803 5805 5808 5810 5812 5814 5816 5819 5821 5824 5826 5828 5831 5832 5834 5836 5838 5840 5842 5844 5846 5848 5850 5852 5854 5856 5858 5860 5861 5863 5865 5866 5868 5869 5870 5872 5873 5874 5875 5876 5877 5878 5879 5880 5880 5881 5881 5882 5883 5883 5883 5883 5884 5883 5883 5882 5882 5884 5885 5883 5882 5882 5881 5881 5882 5881 5881 5881 5880 5879 5878 5877 5876 5875 5874
5759 5763 5766 5770 5773 5777 5780 5783 5786 5789 5792 5795 5798 5800 5803 5805 5807 5809 5811 5813 5816 5818 5821 5823 5826 5828 5830 5832 5834 5836 5838 5840 5842 5844 5846 5848 5850 5852 5853 5855 5857 5859 5861 5862 5864 5865 5867 5868 5869 5871 5872 5873 5874 5875 5876 5877 5877 5878 5878 5880 5881 5881 5881 5881 5881 5881 5881 5880 5880 5879 5881 5884 5882 5880 5880 5880 5880 5880 5880 5879 5879 5878 5877 5876 5875 5874 5873 5872
5754 5758 5762 5766 5769 5772 5775 5779 5782 5785 5788 5791 5794 5797 5799 5802 5804 5806 5808 5811 5813 5815 5818 5820 5822 5825 5827 5829 5831 5833 5836 5837 5839 5842 5843 5845 5847 5849 5851 5852 5854 5856 5858 5859 5861 5863 5864 5866 5867 5868 5870 5871 5872 5873 5874 5875 5875 5875 5876 5878 5879 5879 5879 5879 5879 5879 5878 5878 5878 5877 5879 5882 5881 5878 5878 5878 5878 5878 5878 5877 5877 5876 5875 5874 5872 5871 5870 5869
5749 5753 5757 5761 5764 5768 5771 5774 5778 5781 5784 5787 5790 5793 5795 5798 5800 5803 5805 5808 5810 5812 5815 5817 5820 5822 5824 5827 5829 5831 5833 5835 5837 5839 5841 5843 5844 5846 5848 5850 5851 5853 5855 5857 5858 5860 5862 5863 5864 5866 5867 5868 5870 5871 5871 5872 5872 5873 5875 5876 5876 5877 5877 5877 5877 5876 5875 5875 5875 5875 5876 5879 5878 5877 5876 5875 5875 5876 5876 5875 5874 5874 5872 5871 5870 5869 5867 5866
5743 5747 5751 5755 5759 5763 5766 5770 5773 5776 5779 5783 5785 5788 5791 5794 5796 5799 5802 5804 5806 5809 5811 5813 5816 5819 5821 5824 5827 5828 5830 5833 5834 5836 5838 5840 5841 5843 5845 5847 5848 5850 5852 5854 5855 5857 5859 5860 5862 5863 5864 5866 5867 5868 5868 5868 5870 5872 5873 5873 5874 5874 5874 5874 5874 5873 5873 5872 5872 5872 5873 5875 5875 5874 5874 5873 5873 5873 5873 5873 5872 5871 5870 5868 5867 5866 5864 5863
5738 5742 5746 5750 5753 5757 5761 5764 5768 5771 5775 5778 5781 5784 5787 5789 5792 5795 5797 5800 5803 5805 5807 5810 5813 5816 5819 5822 5824 5825 5827 5829 5831 5833 5835 5837 5838 5840 5842 5844 5846 5847 5849 5850 5852 5854 5856 5857 5859 5860 5862 5863 5864 5864 5865 5866 5868 5869 5870 5870 5870 5871 5871 5871 5871 5871 5871 5869 5870 5870 5869 5871 5872 5872 5871 5870 5870 5871 5871 5870 5869 5868 5867 5865 5864 5863 5861 5860
5733 5737 5741 5745 5748 5752 5756 5759 5762 5766 5769 5773 5776 5779 5782 5785 5788 5790 5793 5796 5798 5801 5804 5807 5809 5812 5815 5817 5819 5822 5824 5826 5828 5830 5832 5834 5835 5837 5839 5841 5842 5844 5846 5848 5850 5851 5853 5854 5855 5857 5859 5860 5860 5861 5863 5864 5866 5866 5867 5867 5867 5868 5868 5868 5868 5868 5868 5867 5867 5868 5866 5866 5868 5869 5869 5867 5867 5868 5868 5867 5866 5866 5864 5862 5861 5859 5858 5857
5729 5732 5736 5740 5743 5747 5750 5754 5757 5760 5764 5768 5771 5774 5778 5781 5783 5786 5789 5791 5794 5797 5799 5802 5805 5808 5810 5813 5815 5818 5820 5822 5824 5826 5828 5830 5832 5834 5836 5838 5839 5841 5843 5845 5846 5848 5849 5851 5853 5854 5855 5856 5857 5859 5860 5861 5862 5863 5864 5864 5864 5864 5864 5864 5865 5865 5865 5864 5865 5866 5863 5863 5864 5865 5866 5865 5864 5864 5864 5864 5863 5862 5861 5859 5858 5856 5854 5853
5724 5728 5731 5735 5738 5742 5745 5749 5752 5755 5759 5763 5766 5770 5772 5775 5778 5781 5784 5786 5788 5792 5794 5797 5800 5803 5806 5809 5811 5814 5816 5818 5820 5822 5825 5827 5828 5830 5832 5834 5836 5837 5839 5841 5842 5844 5845 5847 5849 5850 5851 5852 5854 5856 5857 5858 5859 5860 5860 5860 5860 5861 5861 5861 5861 5862 5862 5861 5861 5862 5860 5859 5861 5861 5862 5863 5862 5861 5861 5861 5861 5859 5858 5856 5854 5853 5851 5849
5720 5723 5726 5730 5734 5736 5740 5743 5747 5751 5754 5757 5761 5764 5766 5770 5773 5776 5778 5780 5783 5786 5789 5792 5795 5798 5802 5804 5807 5810 5812 5814 5816 5818 5820 5822 5824 5826 5828 5830 5831 5833 5835 5836 5838 5839 5842 5843 5845 5846 5847 5849 5850 5852 5853 5854 5856 5856 5856 5857 5857 5857 5857 5856 5858 5858 5859 5858 5858 5858 5855 5853 5856 5858 5859 5860 5858 5858 5858 5858 5858 5856 5855 5853 5851 5850 5848 5845
5715 5719 5722 5725 5728 5732 5735 5739 5742 5746 5749 5752 5756 5758 5761 5765 5767 5769 5772 5774 5777 5781 5784 5787 5791 5794 5797 5800 5803 5805 5807 5809 5812 5813 5816 5818 5819 5821 5823 5825 5827 5829 5831 5832 5833 5835 5837 5839 5840 5841 5843 5844 5846 5848 5849 5850 5851 5852 5853 5853 5852 5852 5852 5853 5854 5854 5855 5855 5854 5853 5849 5846 5851 5854 5856 5857 5856 5855 5855 5855 5855 5853 5852 5850 5848 5847 5844 5842
5710 5714 5717 5720 5724 5727 5730 5734 5738 5741 5744 5747 5750 5753 5756 5759 5761 5764 5766 5768 5771 5776 5779 5783 5786 5789 5792 5795 5799 5801 5802 5805 5807 5809 5811 5813 5815 5817 5819 5821 5823 5825 5826 5828 5829 5831 5833 5834 5836 5837 5839 5841 5843 5844 5845 5846 5846 5847 5848 5848 5848 5848 5849 5850 5850 5850 5851 5851 5851 5850 5843 5838 5843 5849 5852 5854 5853 5852 5852 5852 5852 5850 5849 5847 5845 5843 5841 5839
5705 5709 5713 5716 5719 5722 5725 5730 5733 5735 5739 5743 5745 5748 5750 5753 5755 5757 5760 5761 5764 5770 5774 5778 5782 5785 5789 5792 5794 5796 5797 5801 5804 5805 5807 5808 5810 5813 5814 5816 5818 5820 5822 5823 5825 5827 5829 5831 5832 5833 5835 5837 5839 5840 5840 5841 5841 5842 5843 5844 5844 5845 5845 5846 5846 5847 5847 5847 5847 5847 5841 5833 5833 5841 5847 5848 5848 5849 5850 5850 5849 5847 5845 5843 5841 5839 5837 5835
5700 5704 5707 5711 5715 5718 5721 5725 5727 5731 5735 5738 5740 5743 5744 5747 5749 5752 5755 5754 5757 5766 5770 5773 5777 5781 5785 5787 5789 5791 5793 5798 5800 5800 5802 5804 5806 5808 5810 5812 5814 5816 5817 5818 5820 5823 5826 5827 5828 5829 5831 5832 5834 5835 5835 5835 5836 5837 5839 5840 5840 5841 5841 5841 5843 5843 5843 5844 5842 5840 5840 5834 5826 5830 5839 5841 5842 5845 5846 5847 5846 5844 5842 5840 5838 5836 5833 5832
5696 5699 5702 5706 5710 5713 5716 5719 5723 5727 5730 5732 5735 5736 5738 5742 5743 5747 5748 5745 5752 5763 5766 5768 5773 5777 5780 5782 5783 5785 5789 5793 5794 5794 5797 5799 5800 5803 5805 5808 5809 5810 5812 5813 5816 5819 5821 5821 5823 5824 5825 5827 5829 5830 5830 5830 5831 5833 5835 5835 5836 5837 5837 5838 5839 5839 5839 5839 5836 5835 5838 5834 5823 5821 5829 5832 5835 5839 5841 5841 5841 5839 5838 5836 5835 5832 5830 5828
5690 5694 5698 5701 5704 5708 5712 5716 5719 5722 5724 5727 5729 5730 5733 5735 5737 5740 5739 5739 5749 5758 5761 5765 5768 5771 5774 5776 5778 5780 5784 5787 5787 5789 5792 5792 5794 5797 5800 5802 5803 5804 5807 5809 5811 5813 5815 5816 5817 5818 5820 5822 5824 5825 5825 5826 5827 5829 5830 5830 5831 5832 5832 5834 5834 5835 5835 5833 5830 5831 5834 5832 5820 5814 5821 5827 5829 5832 5834 5834 5834 5834 5833 5832 5831 5829 5826 5824
5684 5689 5692 5695 5699 5704 5708 5711 5713 5716 5719 5721 5723 5725 5728 5729 5732 5732 5730 5737 5749 5752 5755 5761 5762 5765 5768 5771 5773 5776 5778 5780 5781 5784 5786 5787 5790 5792 5795 5796 5797 5799 5802 5804 5806 5807 5809 5811 5812 5813 5816 5817 5819 5820 5821 5822 5823 5824 5825 5826 5827 5827 5828 5830 5830 5830 5829 5826 5827 5828 5830 5829 5814 5805 5817 5825 5824 5826 5827 5827 5827 5827 5827 5827 5826 5824 5822 5821
5678 5682 5686 5690 5696 5700 5703 5705 5707 5710 5712 5714 5717 5719 5721 5723 5725 5722 5725 5740 5748 5745 5748 5755 5758 5762 5764 5766 5768 5770 5772 5774 5776 5778 5781 5784 5785 5787 5790 5791 5793 5795 5797 5799 5801 5803 5805 5806 5808 5809 5812 5813 5814 5815 5816 5817 5818 5819 5821 5822 5823 5823 5824 5824 5824 5824 5822 5820 5824 5825 5825 5823 5808 5802 5815 5821 5818 5819 5820 5820 5820 5819 5819 5820 5819 5819 5818 5816
5673 5676 5680 5685 5690 5694 5696 5697 5701 5704 5706 5709 5711 5712 5715 5716 5713 5715 5728 5742 5741 5735 5740 5749 5755 5759 5759 5760 5762 5764 5767 5768 5771 5773 5776 5778 5780 5782 5785 5786 5789 5790 5792 5795 5797 5798 5800 5801 5803 5804 5806 5807 5808 5809 5811 5812 5814 5816 5817 5819 5819 5818 5818 5818 5817 5817 5816 5817 5820 5820 5818 5813 5803 5804 5815 5817 5815 5814 5813 5814 5815 5814 5814 5813 5812 5812 5812 5811
5667 5671 5675 5678 5684 5688 5689 5691 5695 5697 5699 5703 5703 5705 5708 5704 5704 5717 5731 5736 5731 5729 5736 5744 5750 5752 5751 5753 5756 5759 5762 5763 5766 5767 5769 5772 5774 5778 5780 5781 5784 5784 5786 5790 5790 5791 5793 5794 5796 5798 5800 5802 5803 5805 5807 5809 5810 5812 5813 5814 5813 5813 5812 5810 5811 5811 5812 5814 5814 5813 5811 5804 5800 5805 5811 5812 5812 5811 5809 5809 5808 5808 5808 5807 5808 5807 5806 5804
5662 5665 5668 5672 5677 5680 5681 5684 5688 5691 5693 5695 5696 5698 5697 5695 5705 5720 5727 5727 5726 5728 5734 5738 5742 5744 5745 5748 5751 5755 5756 5758 5761 5762 5764 5767 5769 5773 5775 5777 5779 5781 5783 5784 5784 5786 5788 5789 5792 5794 5795 5798 5800 5801 5803 5804 5805 5806 5807 5808 5807 5807 5806 5805 5806 5806 5806 5807 5807 5806 5804 5799 5799 5803 5804 5806 5808 5808 5807 5806 5803 5802 5801 5801 5803 5802 5801 5799
5656 5659 5661 5665 5669 5672 5676 5680 5683 5685 5686 5688 5690 5689 5686 5692 5707 5718 5719 5719 5721 5725 5729 5730 5732 5736 5740 5744 5747 5749 5751 5754 5756 5758 5759 5761 5765 5769 5772 5774 5776 5777 5779 5779 5780 5782 5783 5784 5789 5790 5791 5794 5795 5796 5798 5799 5799 5800 5802 5801 5801 5802 5802 5801 5801 5800 5800 5799 5798 5798 5797 5795 5798 5798 5797 5799 5802 5804 5804 5802 5799 5797 5796 5797 5797 5796 5795 5793
5650 5652 5654 5657 5663 5667 5671 5674 5677 5678 5678 5680 5681 5678 5681 5693 5707 5711 5711 5714 5717 5722 5724 5722 5723 5729 5735 5740 5742 5743 5746 5749 5751 5752 5754 5757 5759 5763 5767 5770 5772 5773 5775 5775 5775 5777 5778 5780 5783 5784 5786 5788 5789 5790 5792 5793 5793 5795 5795 5794 5796 5798 5798 5796 5794 5794 5794 5791 5790 5791 5790 5791 5793 5792 5792 5796 5799 5799 5799 5797 5795 5794 5793 5794 5793 5791 5789 5787
5643 5646 5648 5652 5658 5663 5665 5668 5671 5671 5671 5671 5670 5672 5682 5694 5702 5703 5705 5709 5713 5717 5718 5716 5716 5722 5729 5734 5737 5739 5741 5743 5745 5747 5750 5752 5754 5759 5763 5765 5767 5769 5771 5771 5770 5772 5773 5774 5776 5778 5779 5782 5783 5784 5785 5786 5787 5787 5788 5790 5792 5792 5791 5790 5789 5788 5789 5786 5784 5786 5785 5785 5786 5785 5788 5793 5794 5793 5794 5792 5790 5789 5789 5789 5788 5786 5784 5782
5637 5640 5642 5646 5652 5656 5659 5661 5663 5664 5663 5660 5661 5670 5681 5689 5694 5696 5698 5704 5708 5709 5710 5710 5711 5715 5721 5725 5730 5733 5734 5736 5739 5742 5745 5747 5750 5756 5760 5761 5763 5765 5766 5765 5764 5766 5767 5767 5769 5771 5772 5774 5776 5777 5777 5779 5780 5781 5783 5786 5786 5784 5784 5785 5783 5782 5783 5780 5779 5780 5780 5780 5780 5782 5785 5787 5787 5786 5787 5787 5786 5786 5785 5783 5783 5782 5780 5778
5629 5632 5636 5642 5645 5648 5652 5654 5655 5655 5652 5650 5657 5668 5676 5681 5685 5687 5690 5696 5698 5700 5702 5703 5705 5708 5711 5716 5721 5725 5727 5730 5734 5736 5739 5741 5745 5751 5754 5755 5757 5758 5759 5758 5758 5760 5761 5760 5761 5763 5765 5766 5767 5769 5771 5773 5775 5776 5778 5779 5779 5778 5777 5777 5777 5777 5777 5775 5773 5774 5776 5776 5777 5781 5781 5779 5781 5781 5780 5781 5782 5782 5781 5779 5777 5776 5775 5774
5622 5625 5630 5637 5639 5640 5645 5647 5647 5645 5642 5645 5655 5666 5670 5672 5676 5680 5684 5688 5688 5690 5695 5698 5700 5701 5703 5708 5712 5716 5720 5723 5726 5729 5731 5735 5739 5743 5746 5748 5749 5751 5751 5750 5751 5753 5754 5753 5754 5755 5757 5758 5760 5764 5767 5769 5770 5770 5771 5771 5771 5771 5770 5769 5770 5770 5770 5770 5770 5771 5771 5770 5771 5775 5776 5773 5775 5777 5776 5776 5777 5777 5775 5774 5772 5770 5769 5768
5615 5619 5625 5630 5632 5634 5637 5636 5635 5636 5636 5641 5651 5660 5662 5664 5670 5675 5677 5678 5680 5684 5689 5692 5694 5695 5697 5700 5704 5709 5712 5715 5718 5721 5724 5728 5732 5735 5737 5740 5742 5744 5744 5743 5745 5747 5748 5748 5748 5749 5749 5752 5755 5759 5761 5761 5762 5762 5763 5764 5764 5764 5763 5762 5761 5763 5765 5765 5767 5767 5765 5765 5766 5768 5770 5770 5768 5770 5772 5772 5771 5771 5770 5769 5767 5765 5763 5762
5607 5613 5620 5624 5625 5628 5629 5627 5628 5630 5632 5637 5646 5651 5654 5658 5665 5667 5668 5671 5675 5678 5682 5685 5686 5689 5691 5693 5696 5700 5703 5706 5710 5713 5716 5722 5726 5728 5729 5731 5733 5736 5736 5737 5739 5741 5741 5740 5740 5741 5743 5746 5748 5750 5752 5753 5754 5754 5754 5755 5756 5756 5756 5756 5756 5759 5761 5760 5762 5761 5756 5760 5764 5762 5764 5765 5762 5764 5767 5765 5764 5765 5764 5763 5763 5761 5757 5756
5601 5608 5613 5616 5618 5622 5622 5619 5620 5624 5628 5634 5640 5643 5646 5652 5657 5659 5661 5665 5668 5671 5674 5677 5679 5682 5684 5687 5688 5690 5693 5697 5700 5705 5711 5715 5718 5721 5721 5722 5724 5727 5728 5729 5732 5734 5732 5731 5733 5735 5736 5738 5739 5742 5745 5745 5745 5745 5745 5748 5750 5751 5753 5753 5752 5754 5754 5753 5756 5753 5748 5754 5759 5756 5757 5759 5757 5759 5761 5759 5757 5758 5757 5758 5758 5756 5753 5752
5595 5600 5604 5607 5611 5613 5613 5613 5615 5619 5626 5631 5633 5635 5639 5644 5648 5652 5656 5658 5661 5665 5667 5670 5673 5675 5677 5680 5681 5682 5685 5688 5692 5699 5704 5707 5710 5713 5714 5715 5716 5718 5720 5722 5725 5725 5723 5723 5726 5727 5728 5729 5731 5734 5735 5737 5737 5738 5741 5744 5745 5747 5748 5746 5746 5747 5745 5748 5750 5744 5740 5748 5753 5751 5751 5753 5753 5752 5752 5752 5752 5751 5750 5752 5752 5751 5750 5749
5587 5590 5594 5599 5601 5602 5605 5608 5612 5616 5621 5624 5627 5630 5633 5637 5642 5647 5649 5652 5655 5658 5661 5663 5666 5669 5670 5672 5673 5675 5677 5680 5685 5691 5695 5698 5703 5705 5706 5707 5708 5710 5713 5714 5715 5716 5715 5715 5717 5718 5719 5721 5725 5728 5730 5732 5732 5733 5736 5739 5739 5740 5740 5738 5740 5738 5736 5741 5742 5734 5735 5744 5748 5746 5745 5746 5746 5745 5744 5744 5745 5744 5744 5746 5746 5745 5745 5744
5578 5581 5586 5590 5592 5594 5598 5603 5607 5610 5614 5617 5621 5624 5627 5632 5637 5640 5642 5645 5649 5653 5655 5658 5660 5662 5663 5664 5667 5669 5671 5674 5678 5680 5684 5689 5694 5696 5697 5699 5701 5704 5706 5706 5707 5707 5706 5706 5709 5710 5712 5715 5721 5725 5725 5725 5725 5726 5729 5731 5731 5732 5732 5731 5730 5728 5730 5733 5731 5728 5733 5736 5739 5742 5740 5739 5740 5738 5737 5738 5737 5737 5737 5738 5740 5740 5739 5737
5569 5573 5579 5583 5585 5586 5590 5595 5599 5603 5608 5611 5614 5618 5622 5627 5630 5632 5634 5639 5643 5647 5649 5651 5653 5655 5657 5660 5663 5664 5666 5669 5670 5672 5677 5682 5684 5686 5688 5691 5695 5697 5698 5698 5698 5698 5697 5698 5702 5704 5706 5711 5718 5720 5718 5715 5717 5720 5722 5723 5723 5724 5724 5721 5719 5722 5727 5723 5718 5727 5732 5726 5730 5737 5736 5736 5737 5733 5731 5732 5732 5731 5730 5729 5732 5732 5731 5729
5562 5567 5572 5576 5577 5579 5584 5588 5593 5599 5603 5605 5607 5611 5615 5619 5621 5625 5629 5634 5637 5639 5641 5643 5646 5650 5654 5657 5658 5659 5661 5662 5663 5667 5672 5675 5676 5677 5680 5683 5687 5689 5691 5691 5691 5691 5689 5690 5696 5698 5699 5705 5711 5713 5711 5709 5712 5714 5713 5714 5715 5715 5714 5713 5712 5718 5721 5711 5709 5724 5726 5717 5722 5731 5731 5733 5733 5727 5726 5728 5726 5724 5723 5722 5723 5723 5722 5721
5556 5561 5565 5567 5569 5574 5579 5583 5586 5590 5594 5597 5600 5604 5608 5611 5615 5620 5624 5626 5628 5632 5634 5637 5643 5647 5650 5652 5652 5652 5654 5656 5658 5663 5667 5668 5669 5670 5672 5676 5678 5681 5683 5683 5684 5685 5682 5684 5691 5692 5691 5696 5702 5706 5705 5703 5703 5705 5704 5704 5706 5707 5707 5707 5707 5712 5712 5704 5705 5716 5716 5712 5718 5724 5725 5728 5726 5719 5719 5721 5719 5717 5717 5717 5717 5716 5715 5714
5550 5554 5557 5559 5563 5567 5571 5574 5576 5579 5584 5588 5592 5597 5602 5606 5611 5614 5617 5619 5622 5626 5629 5633 5640 5643 5643 5644 5644 5645 5649 5652 5654 5658 5660 5660 5661 5663 5665 5667 5669 5672 5674 5675 5677 5677 5677 5679 5685 5685 5682 5685 5693 5699 5698 5695 5693 5695 5696 5696 5699 5701 5701 5699 5701 5704 5703 5699 5703 5708 5706 5706 5715 5719 5718 5720 5717 5711 5709 5711 5711 5712 5712 5712 5712 5710 5708 5706
5543 5547 5549 5551 5555 5559 5562 5565 5569 5572 5574 5577 5583 5590 5596 5600 5606 5609 5609 5612 5616 5619 5623 5629 5634 5634 5634 5636 5636 5639 5645 5647 5648 5651 5652 5652 5654 5656 5657 5659 5662 5663 5665 5668 5669 5670 5671 5674 5678 5678 5672 5676 5687 5691 5689 5687 5683 5682 5686 5691 5695 5696 5693 5691 5694 5697 5697 5695 5697 5697 5695 5700 5711 5713 5710 5709 5708 5705 5703 5705 5706 5707 5707 5706 5704 5703 5701 5700
5534 5538 5541 5543 5546 5550 5553 5556 5560 5563 5566 5571 5578 5584 5589 5594 5598 5600 5600 5603 5608 5613 5617 5622 5625 5624 5624 5627 5630 5636 5640 5639 5640 5643 5643 5644 5647 5649 5650 5652 5655 5656 5658 5661 5662 5664 5666 5667 5670 5671 5665 5669 5681 5682 5679 5678 5670 5667 5679 5690 5692 5690 5686 5684 5686 5689 5691 5689 5687 5685 5687 5694 5703 5704 5701 5701 5701 5699 5698 5698 5698 5698 5698 5697 5697 5696 5694 5694